Regional Weather Roundup
Issued by NWS Bismarck, ND

Home | Current Version | Previous Version | Text Only | Print | Product List | Glossary On
Versions: 1 2 3 4 5 6 7 8 9 10 11 12 13 14 15 16 17 18 19 20 21 22 23 24 25 26 27 28 29 30 31 32 33 34 35 36 37 38 39 40 41 42 43 44 45 46 47 48 49 50
000
ASUS43 KBIS 021910
RWRBIS

NWR BROADCAST TEXT
NATIONAL WEATHER SERVICE BISMARCK ND
100 PM CST MON MAR 02 2015

NOTE: "FAIR" INDICATES FEW OR NO CLOUDS BELOW 12,000 FEET WITH NO
SIGNIFICANT WEATHER AND/OR OBSTRUCTIONS TO VISIBILITY.


CITY           SKY/WX    TMP DP  RH WIND       PRES   REMARKS
WILLISTON      NOT AVBL
MINOT          NOT AVBL
MINOT AFB      SUNNY     26  18  73 S23G29    29.81F WCI  11
BISMARCK       NOT AVBL
DICKINSON      NOT AVBL
GARRISON         N/A     29  18  63 S17G25    29.85F WCI  17
HETTINGER ARPT NOT AVBL
JAMESTOWN      NOT AVBL
BEACH          FAIR      34  18  51 SW20      29.78F
HARVEY         FAIR      25  16  68 S18G29    29.90F WCI  11
LINTON         FAIR      32  21  64 S23G36    29.93F WCI  19
MANDAN         FAIR      32  18  55 S23       29.89F WCI  19
RUGBY          FAIR      23  16  74 S17G26    29.90F WCI   9
WATFORD CITY   FAIR      32  16  51 SW9       29.76F
$$

CITY           SKY/WX    TMP DP  RH WIND       PRES   REMARKS
GRAND FORKS    NOT AVBL
GRAND FORKS AF SUNNY     28  14  56 S20G29    30.12F WCI  15
DEVILS LAKE    NOT AVBL
FARGO          NOT AVBL
CANDO          FAIR      25  18  74 S17G29    29.96F WCI  11
CAVALIER       FAIR      27  12  54 S22G29    30.08F WCI  12
ROLLA          FAIR      23  16  74 S22G28    29.91F WCI   8
WALHALLA         N/A     27  14  59 S18       30.05F WCI  13
$$

CITY           SKY/WX    TMP DP  RH WIND       PRES   REMARKS
$$

CITY           SKY/WX    TMP DP  RH WIND       PRES   REMARKS
REGINA         PTSUNNY   19  14  79 S9        29.71F WCI   9
ESTEVAN        PTSUNNY   27  14  59 S22       29.75F WCI  12
$$




USA.gov is the U.S. government's official web portal to all federal, state and local government web resources and services.